sat.trackr.live / text

‹ back to catalog

STARLINK-34541

NORAD 64771 · 2025-147S

PAYLOAD ACTIVE UNKNOWN

§ Identity

Operator
Country
US
Launch date
2025-07-08
Launch site
AFETR
Launch vehicle
Mass (kg)
RCS (m²)

Purposes: comms

External: N2YO · Heavens-Above · Gunter

§ Orbital elements

Epoch: 2026-05-24T23:37:13.287648Z

Period
93.85 min
Inclination
53.1575°
Eccentricity
0.0001072
Mean motion
15.34398313 rev/d
Perigee alt
462.0 km
Apogee alt
463.4 km
Semi-major
6,840.8 km
B*
5.8996e-4
RAAN
247.6000°
Arg perigee
76.6004°
Mean anomaly
283.5118°
Rev number
5,037

§ Raw data

STARLINK-345411 64771U 25147S   26144.98418157  .00019608  00000+0  58996-3 0  99972 64771  53.1575 247.6000 0001072  76.6004 283.5118 15.34398313 50378

JSON: /api/v1/satellites/64771 · /tle

For live sub-satellite position, see the globe view (requires WebGL).

§ Visibility from observer

Set your observer location to see the next 7 days of passes ≥ 10°. The values pass through the URL so the page stays shareable.

No JS? Fill the form by hand. The geolocation button needs JavaScript.